GW2062 Weather Reports


time (UTC)temp
C
wind
direction
speed
KPH
gust
KPH
rain 1hr
cm
rain 24hr
cm
rain mn
cm
humidity
%
barometer
mb
20260509034011 8 122 0.0 0.0 0.00 0.03 0.00 92 1003.5
20260509033507 8 183 0.0 0.0 0.00 0.03 0.00 92 1003.5
20260509033007 9 183 0.0 0.0 0.00 0.03 0.00 92 1003.6
20260509032608 9 211 0.0 0.0 0.00 0.03 0.00 91 1003.6
20260509032008 9 211 0.0 0.0 0.00 0.03 0.00 91 1003.7
20260509031514 9 199 0.0 0.0 0.00 0.03 0.00 91 1003.7
20260509031108 9 165 0.0 0.0 0.00 0.03 0.00 91 1003.9
20260509030507 9 158 0.0 0.0 0.00 0.03 0.00 91 1004.0
20260509030008 9 158 0.0 0.0 0.00 0.03 0.00 90 1004.0
20260509025507 10 158 0.0 0.0 0.00 0.03 0.00 90 1004.0
20260509025006 10 158 0.0 0.0 0.00 0.03 0.00 89 1004.0
20260509024507 10 158 0.0 0.0 0.00 0.03 0.00 89 1004.0
20260509024007 10 151 0.0 0.0 0.00 0.03 0.00 89 1004.0
20260509023507 10 226 0.0 0.0 0.00 0.03 0.00 89 1004.0
20260509023008 10 155 0.0 0.0 0.00 0.03 0.00 89 1004.0
20260509022607 10 152 0.0 0.0 0.00 0.03 0.00 88 1004.0
20260509022008 10 152 0.0 0.0 0.00 0.03 0.00 88 1004.1
20260509021509 10 152 0.0 0.0 0.00 0.03 0.00 87 1004.0
20260509021009 10 113 0.0 0.0 0.00 0.03 0.00 87 1004.0
20260509020508 11 132 0.0 0.0 0.00 0.03 0.00 86 1004.0
20260509020008 11 145 0.0 6.4 0.00 0.03 0.00 86 1004.0
20260509015512 11 143 0.0 6.4 0.00 0.03 0.00 86 1004.1
20260509015008 11 209 0.0 1.6 0.00 0.03 0.00 85 1004.0
20260509014508 11 105 0.0 1.6 0.00 0.03 0.00 84 1004.1
20260509014007 11 146 0.0 1.6 0.00 0.03 0.00 84 1004.0
20260509013507 11 84 0.0 1.6 0.00 0.03 0.00 83 1004.0
20260509013007 11 113 0.0 0.0 0.00 0.03 0.00 83 1003.9
20260509012607 11 217 0.0 4.8 0.00 0.03 0.00 83 1003.7
20260509012005 11 50 0.0 4.8 0.00 0.03 0.00 83 1003.7
20260509011505 12 143 0.0 0.0 0.00 0.03 0.00 82 1003.6
20260509011004 12 135 0.0 0.0 0.00 0.03 0.00 81 1003.6
20260509010504 12 135 0.0 0.0 0.00 0.03 0.00 81 1003.5
20260509010010 12 122 0.0 0.0 0.00 0.03 0.00 80 1003.5
20260509005504 12 195 0.0 0.0 0.00 0.03 0.00 80 1003.5
20260509005004 12 207 0.0 0.0 0.00 0.03 0.00 79 1003.5
20260509004505 12 212 0.0 1.6 0.00 0.03 0.00 78 1003.5
20260509004004 12 202 0.0 0.0 0.00 0.03 0.00 77 1003.4
20260509003504 13 206 0.0 1.6 0.00 0.03 0.00 76 1003.3
20260509003007 13 225 0.0 1.6 0.00 0.03 0.00 75 1003.3
20260509002604 13 171 0.0 0.0 0.00 0.03 0.00 73 1003.2
20260509002108 13 171 0.0 0.0 0.00 0.03 0.00 73 1003.2
20260509001507 13 206 0.0 3.2 0.00 0.03 0.00 72 1003.3
20260509001006 13 257 0.0 0.0 0.00 0.03 0.00 70 1003.2
20260509000506 14 213 0.0 0.0 0.00 0.03 0.00 69 1003.2
20260509000006 14 153 0.0 0.0 0.00 0.03 0.00 69 1003.2
20260508235506 14 141 0.0 0.0 0.00 0.03 0.00 68 1003.2
20260508235007 14 220 0.0 0.0 0.00 0.03 0.00 68 1003.3
20260508234507 14 41 0.0 0.0 0.00 0.03 0.00 66 1003.2
20260508234006 15 167 0.0 0.0 0.00 0.03 0.00 65 1003.3
20260508233510 15 158 0.0 1.6 0.00 0.03 0.00 64 1003.2
20260508233006 15 240 0.0 1.6 0.00 0.03 0.00 63 1003.3
20260508232607 15 141 0.0 3.2 0.00 0.03 0.00 59 1003.3
20260508232100 15 282 0.0 3.2 0.00 0.03 0.00 59 1003.3
20260508231600 15 229 0.0 3.2 0.00 0.03 0.00 56 1003.3
20260508231100 15 4 0.0 1.6 0.00 0.03 0.00 55 1003.3
20260508231004 15 139 0.0 1.6 0.00 0.03 0.00 55 1003.2
20260508230559 15 91 0.0 4.8 0.00 0.03 0.00 55 1003.3
20260508230104 15 150 0.0 4.8 0.00 0.03 0.00 56 1003.2
20260508225559 15 219 0.0 3.2 0.00 0.03 0.00 54 1003.2
20260508225059 16 172 0.0 0.0 0.00 0.03 0.00 54 1003.2
20260508224558 16 319 0.0 0.0 0.00 0.03 0.00 52 1003.3
20260508224057 16 240 0.0 8.0 0.00 0.03 0.00 51 1003.2
20260508223557 16 215 0.0 8.0 0.00 0.03 0.00 48 1003.3
20260508223101 16 176 0.0 1.6 0.00 0.03 0.00 48 1003.3
20260508222557 17 191 0.0 0.0 0.00 0.03 0.00 46 1003.3
20260508222058 17 27 0.0 0.0 0.00 0.03 0.00 45 1003.4
20260508221558 17 261 0.0 6.4 0.00 0.03 0.00 46 1003.4
20260508221101 17 79 0.0 6.4 0.00 0.03 0.00 47 1003.4
20260508220556 17 245 0.0 3.2 0.00 0.03 0.00 41 1003.5
20260508215555 17 215 0.0 1.6 0.00 0.03 0.00 42 1003.6
20260508215055 17 208 0.0 3.2 0.00 0.03 0.00 43 1003.5
20260508214601 17 265 0.0 6.4 0.00 0.03 0.00 42 1003.5
20260508214053 17 256 0.0 6.4 0.00 0.03 0.00 40 1003.5
20260508213552 17 294 0.0 0.0 0.00 0.03 0.00 39 1003.5
20260508213052 17 240 0.0 6.4 0.00 0.03 0.00 39 1003.6
20260508212552 17 190 0.0 3.2 0.00 0.03 0.00 39 1003.7
20260508212051 17 116 0.0 3.2 0.00 0.03 0.00 39 1003.7
20260508211549 17 318 0.0 3.2 0.00 0.03 0.00 40 1003.7
20260508211048 17 281 0.0 1.6 0.00 0.03 0.00 40 1003.6
20260508210548 17 101 0.0 3.2 0.00 0.03 0.00 41 1003.6
20260508210048 16 262 0.0 6.4 0.00 0.03 0.00 41 1003.8
20260508205547 16 301 0.0 6.4 0.00 0.03 0.00 38 1003.8
20260508205045 16 119 0.0 1.6 0.00 0.03 0.00 42 1003.8
20260508204546 16 232 0.0 8.0 0.00 0.03 0.00 41 1003.9
20260508204046 16 273 0.0 8.0 0.00 0.03 0.00 40 1003.9
20260508203548 16 267 0.0 1.6 0.00 0.03 0.00 40 1004.1
20260508203047 15 265 0.0 0.0 0.00 0.03 0.00 39 1004.1
20260508202544 16 266 0.0 6.4 0.00 0.03 0.00 39 1004.3
20260508202043 16 250 0.0 6.4 0.00 0.03 0.00 38 1004.4
20260508201543 16 257 0.0 8.0 0.00 0.03 0.00 39 1004.4
20260508201045 17 210 0.0 3.2 0.00 0.03 0.00 38 1004.4
20260508200543 16 269 0.0 6.4 0.00 0.03 0.00 38 1004.5
20260508200040 17 324 0.0 6.4 0.00 0.03 0.00 36 1004.7
20260508195538 17 94 0.0 1.6 0.00 0.03 0.00 38 1004.7
20260508195037 17 208 0.0 3.2 0.00 0.03 0.00 41 1004.7
20260508194536 17 201 0.0 3.2 0.00 0.03 0.00 42 1004.8
20260508194035 16 251 0.0 4.8 0.00 0.03 0.00 40 1004.8
20260508193535 16 188 0.0 4.8 0.00 0.03 0.00 41 1004.8
20260508193039 16 224 0.0 8.0 0.00 0.03 0.00 44 1004.9
20260508192533 17 251 0.0 6.4 0.00 0.03 0.00 38 1005.1
20260508192035 17 245 0.0 6.4 0.00 0.03 0.00 38 1005.1
20260508191536 17 169 0.0 6.4 0.00 0.03 0.00 42 1005.0
20260508191033 16 227 0.0 1.6 0.00 0.03 0.00 38 1005.2
20260508190532 16 221 0.0 0.0 0.00 0.03 0.00 44 1005.3
20260508190032 15 237 0.0 0.0 0.00 0.03 0.00 38 1005.5
20260508185631 15 232 0.0 1.6 0.00 0.03 0.00 36 1005.5
20260508185031 16 274 0.0 1.6 0.00 0.03 0.00 35 1005.6
20260508184532 16 278 0.0 1.6 0.00 0.03 0.00 35 1005.6
20260508184029 16 324 0.0 4.8 0.00 0.03 0.00 37 1005.6
20260508183531 16 284 0.0 6.4 0.00 0.03 0.00 35 1005.7
20260508183028 16 229 0.0 6.4 0.00 0.03 0.00 36 1005.8
20260508182529 15 230 0.0 6.4 0.00 0.03 0.00 37 1005.8
20260508182027 15 128 0.0 6.4 0.00 0.03 0.00 40 1005.8
20260508181525 15 26 0.0 3.2 0.00 0.03 0.00 40 1005.9
20260508181023 15 41 0.0 8.0 0.00 0.03 0.00 36 1006.1
20260508180523 15 259 0.0 8.0 0.00 0.03 0.00 35 1006.2
20260508180025 15 257 0.0 8.0 0.00 0.03 0.00 37 1006.2
20260508175522 15 239 0.0 6.4 0.00 0.03 0.00 35 1006.1
20260508175021 15 316 0.0 6.4 0.00 0.03 0.00 34 1006.3
20260508174520 15 271 0.0 4.8 0.00 0.03 0.00 34 1006.4
20260508174019 15 236 0.0 9.7 0.00 0.03 0.00 37 1006.5
20260508173519 15 235 0.0 6.4 0.00 0.03 0.00 36 1006.6
20260508173017 15 243 0.0 6.4 0.00 0.03 0.00 35 1006.6
20260508172516 15 260 0.0 1.6 0.00 0.03 0.00 38 1006.7
20260508172027 15 73 0.0 1.6 0.00 0.03 0.00 34 1006.7
20260508171519 15 248 0.0 14.5 0.00 0.03 0.00 37 1006.9
20260508171019 14 288 0.0 14.5 0.00 0.03 0.00 35 1007.0
20260508170518 14 268 0.0 0.0 0.00 0.03 0.00 34 1007.0
20260508170019 15 306 0.0 1.6 0.00 0.03 0.00 38 1007.1
20260508165517 15 226 0.0 1.6 0.00 0.03 0.00 37 1007.2
20260508165016 14 292 0.0 8.0 0.00 0.03 0.00 39 1007.2
20260508164515 14 221 0.0 8.0 0.00 0.03 0.00 36 1007.3
20260508164015 14 273 0.0 3.2 0.00 0.03 0.00 37 1007.3
20260508163513 14 316 0.0 3.2 0.00 0.03 0.00 37 1007.3
20260508163013 14 243 0.0 1.6 0.00 0.03 0.00 38 1007.4
20260508162512 13 233 0.0 1.6 0.00 0.03 0.00 39 1007.4
20260508162008 13 158 0.0 1.6 0.00 0.03 0.00 39 1007.4
20260508161507 13 321 0.0 1.6 0.00 0.03 0.00 40 1007.5
20260508161006 13 86 0.0 0.0 0.00 0.03 0.00 40 1007.5
20260508160505 13 226 0.0 0.0 0.00 0.03 0.00 43 1007.5
20260508160012 13 248 0.0 0.0 0.00 0.03 0.00 39 1007.6
20260508155503 13 47 0.0 0.0 0.00 0.03 0.00 40 1007.7
20260508155002 13 82 0.0 1.6 0.00 0.03 0.00 38 1007.8
20260508154503 13 247 0.0 3.2 0.00 0.03 0.00 39 1007.8
20260508154101 12 304 0.0 1.6 0.00 0.03 0.00 43 1007.7
20260508153600 12 275 0.0 1.6 0.00 0.03 0.00 44 1007.7
20260508153100 12 254 0.0 1.6 0.00 0.03 0.00 42 1007.8
20260508152600 12 18 0.0 1.6 0.00 0.03 0.00 46 1007.9
20260508151557 12 300 0.0 1.6 0.00 0.03 0.00 46 1007.9
20260508151054 12 254 0.0 0.0 0.00 0.03 0.00 47 1007.9
20260508150553 11 224 0.0 0.0 0.00 0.03 0.00 48 1007.9
20260508150054 11 170 0.0 1.6 0.00 0.03 0.00 45 1008.0
20260508145553 11 252 0.0 0.0 0.00 0.03 0.00 49 1008.0
20260508145051 11 249 0.0 1.6 0.00 0.03 0.00 51 1008.1
20260508144551 11 233 0.0 3.2 0.00 0.03 0.00 51 1008.2
20260508144054 11 276 0.0 3.2 0.00 0.03 0.00 51 1008.3
20260508143551 11 282 0.0 0.0 0.00 0.03 0.00 53 1008.3
20260508143100 11 304 0.0 0.0 0.00 0.03 0.00 55 1008.3
20260508142548 11 217 0.0 0.0 0.00 0.03 0.00 59 1008.3
20260508141555 11 205 0.0 0.0 0.00 0.03 0.00 56 1008.3
20260508141048 10 231 0.0 0.0 0.00 0.03 0.00 59 1008.4
20260508140546 10 276 0.0 0.0 0.00 0.03 0.00 61 1008.4
20260508140049 10 232 0.0 1.6 0.00 0.03 0.00 62 1008.4
20260508135549 10 274 0.0 1.6 0.00 0.03 0.00 63 1008.4
20260508135044 10 248 0.0 0.0 0.00 0.03 0.00 63 1008.4
20260508134543 10 297 0.0 0.0 0.00 0.03 0.00 63 1008.4
20260508134043 10 259 0.0 0.0 0.00 0.03 0.00 64 1008.5
20260508133541 10 275 0.0 0.0 0.00 0.03 0.00 67 1008.5
20260508133052 9 297 0.0 0.0 0.00 0.03 0.00 70 1008.5
20260508132538 8 224 0.0 0.0 0.00 0.03 0.00 71 1008.5
20260508131537 8 239 0.0 0.0 0.00 0.03 0.00 73 1008.6
20260508131036 8 286 0.0 1.6 0.00 0.03 0.00 74 1008.6
20260508130534 7 283 0.0 1.6 0.00 0.03 0.00 79 1008.5
20260508130033 7 231 0.0 0.0 0.00 0.03 0.00 80 1008.6
20260508125534 7 254 0.0 0.0 0.00 0.03 0.00 81 1008.4
20260508125031 7 285 0.0 0.0 0.00 0.03 0.00 83 1008.4
20260508124529 7 250 0.0 0.0 0.00 0.03 0.00 87 1008.4
20260508124028 6 248 0.0 0.0 0.00 0.03 0.00 90 1008.3
20260508123526 6 248 0.0 0.0 0.00 0.03 0.00 92 1008.3
20260508123025 6 259 0.0 0.0 0.00 0.03 0.00 94 1008.2
20260508122524 5 259 0.0 0.0 0.00 0.03 0.00 97 1008.2
20260508121549 5 260 0.0 0.0 0.00 0.03 0.00 97 1008.1
20260508121023 4 260 0.0 0.0 0.00 0.03 0.00 97 1008.1
20260508120522 4 260 0.0 0.0 0.00 0.03 0.00 97 1008.0
20260508120022 3 260 0.0 0.0 0.00 0.03 0.00 97 1008.0
20260508115521 3 260 0.0 0.0 0.00 0.03 0.00 97 1008.0
20260508115019 3 260 0.0 0.0 0.00 0.03 0.00 97 1007.9
20260508114518 3 260 0.0 0.0 0.00 0.03 0.00 97 1007.9
20260508114017 2 260 0.0 0.0 0.00 0.03 0.00 97 1007.9
20260508113515 2 260 0.0 0.0 0.00 0.03 0.00 97 1007.9
20260508113013 2 260 0.0 0.0 0.00 0.03 0.00 97 1007.9
20260508112512 2 260 0.0 0.0 0.00 0.03 0.00 97 1007.9
20260508111509 1 260 0.0 0.0 0.00 0.03 0.00 97 1007.8
20260508111008 1 260 0.0 0.0 0.00 0.03 0.00 97 1007.8
20260508110507 1 260 0.0 0.0 0.00 0.03 0.00 97 1007.8
20260508110007 1 260 0.0 0.0 0.00 0.03 0.00 97 1007.8
20260508105509 1 260 0.0 0.0 0.00 0.03 0.00 97 1007.8
20260508105006 1 260 0.0 0.0 0.00 0.03 0.00 97 1007.8
20260508104505 1 260 0.0 0.0 0.00 0.03 0.00 97 1007.8
20260508104004 1 260 0.0 0.0 0.00 0.03 0.03 97 1007.7
20260508103504 1 260 0.0 0.0 0.00 0.03 0.03 97 1007.8
20260508103013 1 260 0.0 0.0 0.00 0.03 0.03 96 1007.8
20260508102503 1 260 0.0 0.0 0.00 0.03 0.03 96 1007.7
20260508101503 1 260 0.0 0.0 0.00 0.03 0.03 96 1007.8
20260508101006 1 260 0.0 0.0 0.00 0.03 0.03 96 1007.9
20260508100502 1 260 0.0 0.0 0.00 0.03 0.03 96 1007.9
20260508100002 1 260 0.0 0.0 0.00 0.03 0.03 96 1007.9
20260508095502 1 260 0.0 0.0 0.00 0.03 0.03 96 1007.9
20260508095001 1 260 0.0 0.0 0.00 0.03 0.03 96 1007.9
20260508094502 2 260 0.0 0.0 0.00 0.03 0.03 96 1007.9
20260508094006 2 260 0.0 0.0 0.00 0.03 0.03 96 1007.9
20260508093501 2 260 0.0 0.0 0.00 0.03 0.03 96 1008.0
20260508093000 2 260 0.0 0.0 0.00 0.03 0.03 96 1007.9
20260508092501 2 260 0.0 0.0 0.00 0.03 0.03 96 1008.0
20260508091510 2 260 0.0 0.0 0.03 0.03 0.03 95 1007.9
20260508091004 2 260 0.0 0.0 0.03 0.03 0.03 95 1008.0
20260508090504 2 260 0.0 0.0 0.03 0.03 0.03 95 1008.0
20260508090005 3 260 0.0 0.0 0.03 0.03 0.03 95 1007.9
20260508085502 3 260 0.0 0.0 0.03 0.03 0.03 95 1007.9
20260508085003 3 260 0.0 0.0 0.03 0.03 0.03 95 1008.0
20260508084502 3 260 0.0 0.0 0.03 0.03 0.03 95 1008.0
20260508084003 3 260 0.0 0.0 0.03 0.03 0.03 95 1007.9
20260508083502 3 260 0.0 0.0 0.03 0.03 0.03 96 1007.9
20260508083006 3 260 0.0 0.0 0.03 0.03 0.03 96 1007.9
20260508082502 3 122 0.0 0.0 0.03 0.03 0.03 96 1007.9
20260508081604 3 213 0.0 0.0 0.03 0.03 0.03 96 1008.1
20260508081059 3 223 0.0 0.0 0.00 0.00 0.00 96 1008.2
20260508080559 3 223 0.0 0.0 0.00 0.00 0.00 96 1008.0
20260508075559 3 223 0.0 0.0 0.00 0.00 0.00 95 1007.8
20260508075058 3 223 0.0 0.0 0.00 0.00 0.00 95 1007.8
20260508074558 3 223 0.0 0.0 0.00 0.00 0.00 95 1007.8
20260508074058 3 223 0.0 0.0 0.00 0.00 0.00 95 1007.8
20260508073558 3 223 0.0 0.0 0.00 0.00 0.00 95 1007.9
20260508073100 3 223 0.0 0.0 0.00 0.00 0.00 95 1008.0
20260508072557 3 223 0.0 0.0 0.00 0.00 0.00 95 1008.0
20260508071558 4 223 0.0 0.0 0.00 0.00 0.00 95 1008.0
20260508071058 4 223 0.0 0.0 0.00 0.00 0.00 95 1007.8
20260508070557 4 223 0.0 0.0 0.00 0.00 0.00 94 1007.9
20260508070059 4 223 0.0 0.0 0.00 0.00 0.00 94 1008.0
20260508065556 4 223 0.0 0.0 0.00 0.00 0.00 94 1008.3
20260508065057 4 223 0.0 0.0 0.00 0.00 0.00 94 1008.4
20260508064610 4 223 0.0 0.0 0.00 0.00 0.00 93 1008.3
20260508064057 4 188 0.0 0.0 0.00 0.03 0.00 93 1008.4
20260508063557 4 95 0.0 0.0 0.00 0.03 0.00 93 1008.4
20260508063057 4 95 0.0 0.0 0.00 0.03 0.00 92 1008.5
20260508062556 4 95 0.0 0.0 0.00 0.03 0.00 92 1008.5
20260508061502 4 95 0.0 0.0 0.00 0.03 0.00 92 1008.4
20260508061000 4 95 0.0 0.0 0.00 0.03 0.00 92 1008.5
20260508060502 3 95 0.0 0.0 0.00 0.03 0.00 92 1008.6
20260508060115 3 95 0.0 0.0 0.00 0.03 0.00 92 1008.6
20260508060001 3 95 0.0 0.0 0.00 0.03 0.00 92 1008.6
20260508055600 3 95 0.0 0.0 0.00 0.03 0.00 92 1008.6
20260508055501 3 95 0.0 0.0 0.00 0.03 0.00 92 1008.7
20260508055100 3 95 0.0 0.0 0.00 0.03 0.00 92 1008.7
20260508054605 3 95 0.0 0.0 0.00 0.03 0.00 92 1008.6
20260508054101 3 95 0.0 0.0 0.00 0.03 0.00 92 1008.7
20260508053600 3 95 0.0 0.0 0.00 0.03 0.00 92 1008.8
20260508053105 3 95 0.0 0.0 0.00 0.03 0.00 92 1008.7
20260508052600 3 95 0.0 0.0 0.00 0.03 0.00 92 1008.9
20260508051555 3 95 0.0 0.0 0.00 0.03 0.00 92 1008.9
20260508051055 3 95 0.0 0.0 0.00 0.03 0.00 92 1008.7
20260508050555 3 95 0.0 0.0 0.00 0.03 0.00 92 1008.7
20260508050058 3 95 0.0 0.0 0.00 0.03 0.00 92 1008.7
20260508045554 3 95 0.0 0.0 0.00 0.03 0.00 91 1008.7
20260508045058 3 95 0.0 0.0 0.00 0.03 0.00 91 1008.6
20260508044554 3 95 0.0 0.0 0.00 0.03 0.00 91 1008.5
20260508044056 4 95 0.0 0.0 0.00 0.03 0.00 91 1008.5
20260508043554 4 95 0.0 0.0 0.00 0.03 0.00 91 1008.4
20260508043054 4 95 0.0 0.0 0.00 0.03 0.00 90 1008.4
20260508042555 4 95 0.0 0.0 0.00 0.03 0.00 90 1008.4
20260508041558 4 95 0.0 0.0 0.00 0.03 0.00 90 1008.5
20260508041054 4 95 0.0 0.0 0.00 0.03 0.00 90 1008.6
20260508040554 4 95 0.0 0.0 0.00 0.03 0.00 90 1008.6
20260508040104 4 95 0.0 0.0 0.00 0.03 0.00 90 1008.5
20260508035554 4 95 0.0 0.0 0.00 0.03 0.00 90 1008.4
20260508035057 4 95 0.0 0.0 0.00 0.03 0.00 90 1008.5
20260508034557 4 95 0.0 0.0 0.00 0.03 0.00 90 1008.5